{"data":{"norad_id":48801,"intl_designator":"2021-045AL","name":"ONEWEB-0216","alt_names":[],"object_type":"PAYLOAD","status":"ACTIVE","operator":null,"country":"UK","launch_date":"2021-05-28","launch_site_code":"VOSTO","launch_vehicle":null,"mission":null,"orbit_class":"UNKNOWN","rcs_meters":null,"size_class":null,"mass_kg":null,"dimensions":null,"purposes":["comms"],"wikipedia_slug":null,"has_3d_model":false,"image_url":null,"decayed_at":null,"tle_current":{"epoch":"2026-09-19T08:22:39.275616Z","epoch_age_seconds":125122,"freshness":"FRESH","line1":"1 48801U 21045AL  26262.34906569 -.00000085  00000+0 -26059-3 0  9992","line2":"2 48801  87.8990 240.4242 0002078  84.4177 275.7191 13.15547318256687","mean_motion":13.15547318,"eccentricity":0.0002078,"inclination_deg":87.899,"raan_deg":240.4242,"arg_perigee_deg":84.4177,"mean_anomaly_deg":275.7191,"bstar":-0.00026059,"rev_number":25668,"period_min":109.46014486117,"perigee_km":1200.2003939938,"apogee_km":1203.3506056287,"semimajor_km":7579.9124998112,"source":"CELESTRAK","updated_at":"2026-09-20T09:00:44.622617Z"}}}